{"data":{"norad_id":67111,"intl_designator":"2025-299K","name":"STARLINK-35875","alt_names":[],"object_type":"PAYLOAD","status":"ACTIVE","operator":null,"country":"US","launch_date":"2025-12-15","launch_site_code":"AFETR","launch_vehicle":null,"mission":null,"orbit_class":"UNKNOWN","rcs_meters":null,"size_class":null,"mass_kg":null,"dimensions":null,"purposes":["comms"],"wikipedia_slug":null,"has_3d_model":false,"image_url":null,"decayed_at":null,"tle_current":{"epoch":"2026-05-25T04:00:03.998880Z","epoch_age_seconds":63841,"freshness":"FRESH","line1":"1 67111U 25299K   26145.16671295  .00005688  00000+0  21605-3 0  9991","line2":"2 67111  43.0003  96.9220 0000844 252.9423 130.5153 15.27580978  5857","mean_motion":15.27580978,"eccentricity":8.44e-5,"inclination_deg":43.0003,"raan_deg":96.922,"arg_perigee_deg":252.9423,"mean_anomaly_deg":130.5153,"bstar":0.00021605,"rev_number":585,"period_min":94.266688361447,"perigee_km":482.46708369804,"apogee_km":483.62525141672,"semimajor_km":6861.1831675574,"source":"CELESTRAK","updated_at":"2026-05-25T13:38:21.474604Z"}}}